This is the latest recevied weather packets stored in our database for station/object WW3TRG. If no packets are shown the sender has not sent any weather packets the latest 10 day(s).
| Time | Temp. | Humidity | Pressure | Rain* | Wind** | Luminosity | Snow |
|---|---|---|---|---|---|---|---|
| 1777806002 | 5.56° C | 69% | 1013 hPa | 0 mm | - | 29 W/m² | - |
| 1777805698 | 6.11° C | 66% | 1012.5 hPa | 0 mm | - | 33 W/m² | - |
| 1777805395 | 6.11° C | 68% | 1012.8 hPa | 0 mm | - | 29 W/m² | - |
| 1777805094 | 5.56° C | 67% | 1012.3 hPa | 0 mm | - | 22 W/m² | - |
| 1777804791 | 6.11° C | 67% | 1012.6 hPa | 0 mm | - | 16 W/m² | - |
| 1777804489 | 6.11° C | 67% | 1012.3 hPa | 0 mm | - | 16 W/m² | - |
| 1777804186 | 6.11° C | 68% | 1012.2 hPa | 0 mm | - | 12 W/m² | - |
| 1777803883 | 5.56° C | 69% | 1012.3 hPa | 0 mm | - | 9 W/m² | - |
| 1777803579 | 5.56° C | 72% | 1012 hPa | 0 mm | - | 5 W/m² | - |
| 1777803277 | 5.56° C | 69% | 1012.1 hPa | 0 mm | - | 1 W/m² | - |
| 1777802973 | 6.11° C | 69% | 1012.2 hPa | 0 mm | - | 0 W/m² | - |
| 1777802671 | 5.56° C | 69% | 1011.9 hPa | 0 mm | - | 0 W/m² | - |
| 1777802368 | 6.11° C | 68% | 1012.1 hPa | 0 mm | - | 0 W/m² | - |
| 1777802066 | 6.11° C | 68% | 1011.8 hPa | 0 mm | - | 0 W/m² | - |
| 1777801764 | 5.56° C | 68% | 1011.8 hPa | 0 mm | - | 0 W/m² | - |
| 1777801461 | 6.11° C | 67% | 1011.6 hPa | 0 mm | - | 0 W/m² | - |
| 1777801157 | 5.56° C | 68% | 1011.7 hPa | 0 mm | - | 0 W/m² | - |
| 1777800854 | 6.11° C | 67% | 1011.6 hPa | 0 mm | - | 0 W/m² | - |
| 1777800549 | 6.11° C | 67% | 1011.6 hPa | 0 mm | - | 0 W/m² | - |
| 1777800246 | 6.11° C | 68% | 1011.5 hPa | 0 mm | - | 0 W/m² | - |
| 1777799942 | 6.11° C | 67% | 1011.8 hPa | 0 mm | - | 0 W/m² | - |
| 1777799638 | 6.11° C | 67% | 1011.4 hPa | 0 mm | - | 0 W/m² | - |
| 1777799335 | 6.11° C | 67% | 1011.4 hPa | 0 mm | - | 0 W/m² | - |
| 1777799030 | 6.11° C | 67% | 1011.4 hPa | 0 mm | - | 0 W/m² | - |
| 1777798727 | 6.11° C | 67% | 1011.6 hPa | 0 mm | - | 0 W/m² | - |
* Rain latest hour (hover to see other rain measurements)
** Current wind speed in m/s (hover to see current wind gust speed)